CST,Max TemperatureF,Mean TemperatureF,Min TemperatureF,Max Dew PointF,MeanDew PointF,Min DewpointF,Max Humidity, Mean Humidity, Min Humidity, Max Sea Level PressureIn, Mean Sea Level PressureIn, Min Sea Level PressureIn, Max VisibilityMiles, Mean VisibilityMiles, Min VisibilityMiles, Max Wind SpeedMPH, Mean Wind SpeedMPH, Max Gust SpeedMPH,PrecipitationIn, CloudCover, Events, WindDirDegrees
2012-11-1,71,56,41,41,36,32,81,55,25,30.06,30.01,29.94,10,10,10,10,3,,0.00,1,,223
2012-11-2,73,60,46,48,44,39,82,61,38,30.02,29.96,29.91,10,10,10,12,5,,0.00,2,,143
2012-11-3,64,53,42,54,43,36,87,68,42,30.18,30.04,29.94,10,10,9,14,7,21,0.00,2,,307
2012-11-4,59,47,35,37,35,32,93,70,36,30.24,30.16,30.10,10,9,5,8,2,,0.00,1,,126
2012-11-5,55,50,44,48,41,37,93,78,58,30.09,30.04,29.97,10,9,2,15,6,21,0.00,8,Rain-Thunderstorm,231
2012-11-6,57,49,41,41,38,32,93,74,48,30.10,30.05,29.98,10,9,5,12,7,18,0.00,5,,302
2012-11-7,55,48,41,34,31,28,76,61,38,30.16,30.11,30.05,10,10,10,18,5,25,0.00,0,,298
2012-11-8,64,50,35,37,35,32,87,64,32,30.18,30.10,30.03,10,10,10,13,7,18,0.00,0,,134
2012-11-9,73,60,46,55,46,37,82,70,50,30.04,30.01,29.95,10,10,10,14,9,25,0.00,1,,144
2012-11-10,75,66,57,54,51,46,72,63,36,30.05,29.96,29.89,10,10,10,21,11,28,0.00,4,,152
2012-11-11,69,50,32,57,47,32,100,82,64,30.21,29.98,29.84,10,8,1,23,12,37,0.00,7,Rain,228
2012-11-12,46,37,28,28,23,18,87,64,32,30.47,30.38,30.23,10,10,9,13,7,18,0.00,1,,298
2012-11-13,51,40,30,28,24,21,80,57,32,30.51,30.45,30.38,10,10,10,7,0,,0.00,1,,120
2012-11-14,53,43,33,32,26,21,81,58,33,30.45,30.37,30.31,10,10,10,7,1,,0.00,1,,133
2012-11-15,57,44,32,32,27,21,93,59,31,30.38,30.33,30.31,10,10,9,6,0,,0.00,2,,350
2012-11-16,57,45,33,36,29,25,87,61,29,30.45,30.40,30.37,10,10,5,7,1,,0.00,0,,145
2012-11-17,60,48,35,34,29,25,87,58,25,30.46,30.39,30.34,10,10,10,9,3,,0.00,0,,125
2012-11-18,64,50,35,34,28,25,75,49,24,30.37,30.31,30.25,10,10,10,12,6,16,0.00,2,,140
2012-11-19,51,48,44,48,41,34,94,77,50,30.27,30.21,30.15,10,9,3,9,5,,0.00,5,Rain,143
2012-11-20,66,56,46,48,42,39,87,68,37,30.23,30.19,30.14,10,10,10,17,3,,0.00,0,,306
2012-11-21,68,54,41,46,38,32,93,66,26,30.30,30.22,30.15,10,9,4,8,2,,0.00,0,,154
2012-11-22,66,58,50,52,43,36,88,62,40,30.16,30.09,30.02,10,10,7,20,8,29,0.00,5,Rain-Thunderstorm,187
2012-11-23,55,44,32,50,28,16,88,58,42,30.41,30.33,30.17,10,10,8,21,12,29,0.00,2,Rain,319
2012-11-24,48,37,26,23,17,10,65,48,27,30.39,30.23,30.04,10,10,10,12,5,,0.00,1,,177
2012-11-25,66,49,32,37,28,19,70,48,29,30.04,29.97,29.88,10,10,10,9,2,20,0.00,0,,187
2012-11-26,48,42,33,37,33,27,76,68,58,30.35,30.11,29.96,10,10,7,14,6,22,0.00,7,Rain,63
2012-11-27,46,35,24,27,22,16,93,67,31,30.44,30.35,30.31,10,10,7,8,4,,0.00,0,,346
2012-11-28,53,40,28,30,26,19,80,61,35,30.44,30.34,30.26,10,10,0,10,1,,0.00,1,,145
2012-11-29,66,50,35,34,30,23,87,58,19,30.26,30.18,30.11,10,10,10,12,5,16,0.00,2,,147
2012-11-30,68,54,41,50,41,30,88,68,49,30.16,30.12,30.08,10,10,7,12,5,,0.00,2,,159